#datetime,building,power
2022-05-09T00:00:00,rvs,11.74
2022-05-09T00:01:00,rvs,11.63
2022-05-09T00:02:00,rvs,11.65
2022-05-09T00:03:00,rvs,11.68
2022-05-09T00:04:00,rvs,11.67
2022-05-09T00:05:00,rvs,11.72
2022-05-09T00:06:00,rvs,12.77
2022-05-09T00:07:00,rvs,12.70
2022-05-09T00:08:00,rvs,12.66
2022-05-09T00:09:00,rvs,11.57
2022-05-09T00:10:00,rvs,11.52
2022-05-09T00:11:00,rvs,11.56
2022-05-09T00:12:00,rvs,11.37
2022-05-09T00:13:00,rvs,11.39
2022-05-09T00:14:00,rvs,11.43
2022-05-09T00:15:00,rvs,11.31
2022-05-09T00:16:00,rvs,11.30
2022-05-09T00:17:00,rvs,11.37
2022-05-09T00:18:00,rvs,11.52
2022-05-09T00:19:00,rvs,11.55
2022-05-09T00:20:00,rvs,11.27
2022-05-09T00:21:00,rvs,11.47
2022-05-09T00:22:00,rvs,11.49
2022-05-09T00:23:00,rvs,11.45
2022-05-09T00:24:00,rvs,11.39
2022-05-09T00:25:00,rvs,11.40
2022-05-09T00:26:00,rvs,11.30
2022-05-09T00:27:00,rvs,11.26
2022-05-09T00:28:00,rvs,11.07
2022-05-09T00:29:00,rvs,11.07
2022-05-09T00:30:00,rvs,11.32
2022-05-09T00:31:00,rvs,11.03
2022-05-09T00:32:00,rvs,11.13
2022-05-09T00:33:00,rvs,10.93
2022-05-09T00:34:00,rvs,11.01
2022-05-09T00:35:00,rvs,10.95
2022-05-09T00:36:00,rvs,11.34
2022-05-09T00:37:00,rvs,11.16
2022-05-09T00:38:00,rvs,11.49
2022-05-09T00:39:00,rvs,10.19
2022-05-09T00:40:00,rvs,10.35
2022-05-09T00:41:00,rvs,10.36
2022-05-09T00:42:00,rvs,11.47
2022-05-09T00:43:00,rvs,10.55
2022-05-09T00:44:00,rvs,10.44
2022-05-09T00:45:00,rvs,10.31
2022-05-09T00:46:00,rvs,10.28
2022-05-09T00:47:00,rvs,10.34
2022-05-09T00:48:00,rvs,10.19
2022-05-09T00:49:00,rvs,11.43
2022-05-09T00:50:00,rvs,10.25
2022-05-09T00:51:00,rvs,10.15
2022-05-09T00:52:00,rvs,10.07
2022-05-09T00:53:00,rvs,10.34
2022-05-09T00:54:00,rvs,13.61
2022-05-09T00:55:00,rvs,14.43
2022-05-09T00:56:00,rvs,15.35
2022-05-09T00:57:00,rvs,15.71
2022-05-09T00:58:00,rvs,15.40
2022-05-09T00:59:00,rvs,16.11
2022-05-09T01:00:00,rvs,15.68
2022-05-09T01:01:00,rvs,15.46
2022-05-09T01:02:00,rvs,10.72
2022-05-09T01:03:00,rvs,10.85
2022-05-09T01:04:00,rvs,10.47
2022-05-09T01:05:00,rvs,10.54
2022-05-09T01:06:00,rvs,10.74
2022-05-09T01:07:00,rvs,10.34
2022-05-09T01:08:00,rvs,14.98
2022-05-09T01:09:00,rvs,14.95
2022-05-09T01:10:00,rvs,15.65
2022-05-09T01:11:00,rvs,11.19
2022-05-09T01:12:00,rvs,11.17
2022-05-09T01:13:00,rvs,11.22
2022-05-09T01:14:00,rvs,11.42
2022-05-09T01:15:00,rvs,11.21
2022-05-09T01:16:00,rvs,24.69
2022-05-09T01:17:00,rvs,24.48
2022-05-09T01:18:00,rvs,24.07
2022-05-09T01:19:00,rvs,23.78
2022-05-09T01:20:00,rvs,23.67
2022-05-09T01:21:00,rvs,10.78
2022-05-09T01:22:00,rvs,10.84
2022-05-09T01:23:00,rvs,10.76
2022-05-09T01:24:00,rvs,10.66
2022-05-09T01:25:00,rvs,10.77
2022-05-09T01:26:00,rvs,10.69
2022-05-09T01:27:00,rvs,10.71
2022-05-09T01:28:00,rvs,11.05
2022-05-09T01:29:00,rvs,10.74
2022-05-09T01:30:00,rvs,10.69
2022-05-09T01:31:00,rvs,10.60
2022-05-09T01:32:00,rvs,10.51
2022-05-09T01:33:00,rvs,10.79
2022-05-09T01:34:00,rvs,10.90
2022-05-09T01:35:00,rvs,11.10
2022-05-09T01:36:00,rvs,10.67
2022-05-09T01:37:00,rvs,10.72
2022-05-09T01:38:00,rvs,10.68
2022-05-09T01:39:00,rvs,10.94
2022-05-09T01:40:00,rvs,10.80
2022-05-09T01:41:00,rvs,10.89
2022-05-09T01:42:00,rvs,10.87
2022-05-09T01:43:00,rvs,10.61
2022-05-09T01:44:00,rvs,10.53
2022-05-09T01:45:00,rvs,13.34
2022-05-09T01:46:00,rvs,14.60
2022-05-09T01:47:00,rvs,17.45
2022-05-09T01:48:00,rvs,21.34
2022-05-09T01:49:00,rvs,21.78
2022-05-09T01:50:00,rvs,24.67
2022-05-09T01:51:00,rvs,23.41
2022-05-09T01:52:00,rvs,20.82
2022-05-09T01:53:00,rvs,37.96
2022-05-09T01:54:00,rvs,36.85
2022-05-09T01:55:00,rvs,38.24
2022-05-09T01:56:00,rvs,39.45
2022-05-09T01:57:00,rvs,13.28
2022-05-09T01:58:00,rvs,14.10
2022-05-09T01:59:00,rvs,14.75
2022-05-09T02:00:00,rvs,15.98
2022-05-09T02:01:00,rvs,17.57
2022-05-09T02:02:00,rvs,17.55
2022-05-09T02:03:00,rvs,20.60
2022-05-09T02:04:00,rvs,20.26
2022-05-09T02:05:00,rvs,19.51
2022-05-09T02:06:00,rvs,21.35
2022-05-09T02:07:00,rvs,19.67
2022-05-09T02:08:00,rvs,16.26
2022-05-09T02:09:00,rvs,16.81
2022-05-09T02:10:00,rvs,16.75
2022-05-09T02:11:00,rvs,16.50
2022-05-09T02:12:00,rvs,16.15
2022-05-09T02:13:00,rvs,16.02
2022-05-09T02:14:00,rvs,16.06
2022-05-09T02:15:00,rvs,15.98
2022-05-09T02:16:00,rvs,15.97
2022-05-09T02:17:00,rvs,16.86
2022-05-09T02:18:00,rvs,17.04
2022-05-09T02:19:00,rvs,17.29
2022-05-09T02:20:00,rvs,11.80
2022-05-09T02:21:00,rvs,11.78
2022-05-09T02:22:00,rvs,10.76
2022-05-09T02:23:00,rvs,10.54
2022-05-09T02:24:00,rvs,10.56
2022-05-09T02:25:00,rvs,10.65
2022-05-09T02:26:00,rvs,10.06
2022-05-09T02:27:00,rvs,10.11
2022-05-09T02:28:00,rvs,10.06
2022-05-09T02:29:00,rvs,9.84
2022-05-09T02:30:00,rvs,9.85
2022-05-09T02:31:00,rvs,10.00
2022-05-09T02:32:00,rvs,9.95
2022-05-09T02:33:00,rvs,9.91
2022-05-09T02:34:00,rvs,10.04
2022-05-09T02:35:00,rvs,10.38
2022-05-09T02:36:00,rvs,10.21
2022-05-09T02:37:00,rvs,10.25
2022-05-09T02:38:00,rvs,10.24
2022-05-09T02:39:00,rvs,10.27
2022-05-09T02:40:00,rvs,10.09
2022-05-09T02:41:00,rvs,10.03
2022-05-09T02:42:00,rvs,9.98
2022-05-09T02:43:00,rvs,14.47
2022-05-09T02:44:00,rvs,14.59
2022-05-09T02:45:00,rvs,14.55
2022-05-09T02:46:00,rvs,13.39
2022-05-09T02:47:00,rvs,13.89
2022-05-09T02:48:00,rvs,13.25
2022-05-09T02:49:00,rvs,13.43
2022-05-09T02:50:00,rvs,14.47
2022-05-09T02:51:00,rvs,15.97
2022-05-09T02:52:00,rvs,15.30
2022-05-09T02:53:00,rvs,14.91
2022-05-09T02:54:00,rvs,15.15
2022-05-09T02:55:00,rvs,14.86
2022-05-09T02:56:00,rvs,14.84
2022-05-09T02:57:00,rvs,14.48
2022-05-09T02:58:00,rvs,14.74
2022-05-09T02:59:00,rvs,15.24
2022-05-09T03:00:00,rvs,9.77
2022-05-09T03:01:00,rvs,9.78
2022-05-09T03:02:00,rvs,9.50
2022-05-09T03:03:00,rvs,9.73
2022-05-09T03:04:00,rvs,9.77
2022-05-09T03:05:00,rvs,9.82
2022-05-09T03:06:00,rvs,9.76
2022-05-09T03:07:00,rvs,9.64
2022-05-09T03:08:00,rvs,9.58
2022-05-09T03:09:00,rvs,9.58
2022-05-09T03:10:00,rvs,9.61
2022-05-09T03:11:00,rvs,9.70
2022-05-09T03:12:00,rvs,9.97
2022-05-09T03:13:00,rvs,10.13
2022-05-09T03:14:00,rvs,9.93
2022-05-09T03:15:00,rvs,10.06
2022-05-09T03:16:00,rvs,11.28
2022-05-09T03:17:00,rvs,10.81
2022-05-09T03:18:00,rvs,10.65
2022-05-09T03:19:00,rvs,10.55
2022-05-09T03:20:00,rvs,10.38
2022-05-09T03:21:00,rvs,10.43
2022-05-09T03:22:00,rvs,10.59
2022-05-09T03:23:00,rvs,10.39
2022-05-09T03:24:00,rvs,10.34
2022-05-09T03:25:00,rvs,13.07
2022-05-09T03:26:00,rvs,13.86
2022-05-09T03:27:00,rvs,15.07
2022-05-09T03:28:00,rvs,16.92
2022-05-09T03:29:00,rvs,17.70
2022-05-09T03:30:00,rvs,17.59
2022-05-09T03:31:00,rvs,14.40
2022-05-09T03:32:00,rvs,20.72
2022-05-09T03:33:00,rvs,17.16
2022-05-09T03:34:00,rvs,18.78
2022-05-09T03:35:00,rvs,25.00
2022-05-09T03:36:00,rvs,22.39
2022-05-09T03:37:00,rvs,20.39
2022-05-09T03:38:00,rvs,20.81
2022-05-09T03:39:00,rvs,20.16
2022-05-09T03:40:00,rvs,20.17
2022-05-09T03:41:00,rvs,20.76
2022-05-09T03:42:00,rvs,23.92
2022-05-09T03:43:00,rvs,24.19
2022-05-09T03:44:00,rvs,24.20
2022-05-09T03:45:00,rvs,23.98
2022-05-09T03:46:00,rvs,24.75
2022-05-09T03:47:00,rvs,25.36
2022-05-09T03:48:00,rvs,25.55
2022-05-09T03:49:00,rvs,25.60
2022-05-09T03:50:00,rvs,25.47
2022-05-09T03:51:00,rvs,25.09
2022-05-09T03:52:00,rvs,26.46
2022-05-09T03:53:00,rvs,25.39
2022-05-09T03:54:00,rvs,24.69
2022-05-09T03:55:00,rvs,14.48
2022-05-09T03:56:00,rvs,14.23
2022-05-09T03:57:00,rvs,9.51
2022-05-09T03:58:00,rvs,9.68
2022-05-09T03:59:00,rvs,9.38
2022-05-09T04:00:00,rvs,9.48
2022-05-09T04:01:00,rvs,9.69
2022-05-09T04:02:00,rvs,9.40
2022-05-09T04:03:00,rvs,9.39
2022-05-09T04:04:00,rvs,9.33
2022-05-09T04:05:00,rvs,9.27
2022-05-09T04:06:00,rvs,9.33
2022-05-09T04:07:00,rvs,9.26
2022-05-09T04:08:00,rvs,14.11
2022-05-09T04:09:00,rvs,14.02
2022-05-09T04:10:00,rvs,14.13
2022-05-09T04:11:00,rvs,12.93
2022-05-09T04:12:00,rvs,13.83
2022-05-09T04:13:00,rvs,15.03
2022-05-09T04:14:00,rvs,16.75
2022-05-09T04:15:00,rvs,14.14
2022-05-09T04:16:00,rvs,15.36
2022-05-09T04:17:00,rvs,23.87
2022-05-09T04:18:00,rvs,23.95
2022-05-09T04:19:00,rvs,23.69
2022-05-09T04:20:00,rvs,40.28
2022-05-09T04:21:00,rvs,13.37
2022-05-09T04:22:00,rvs,25.66
2022-05-09T04:23:00,rvs,26.49
2022-05-09T04:24:00,rvs,27.16
2022-05-09T04:25:00,rvs,15.39
2022-05-09T04:26:00,rvs,12.97
2022-05-09T04:27:00,rvs,18.38
2022-05-09T04:28:00,rvs,19.43
2022-05-09T04:29:00,rvs,19.84
2022-05-09T04:30:00,rvs,18.98
2022-05-09T04:31:00,rvs,21.27
2022-05-09T04:32:00,rvs,18.52
2022-05-09T04:33:00,rvs,15.92
2022-05-09T04:34:00,rvs,16.23
2022-05-09T04:35:00,rvs,16.40
2022-05-09T04:36:00,rvs,15.50
2022-05-09T04:37:00,rvs,15.59
2022-05-09T04:38:00,rvs,15.73
2022-05-09T04:39:00,rvs,14.89
2022-05-09T04:40:00,rvs,14.92
2022-05-09T04:41:00,rvs,14.43
2022-05-09T04:42:00,rvs,15.45
2022-05-09T04:43:00,rvs,17.22
2022-05-09T04:44:00,rvs,13.61
2022-05-09T04:45:00,rvs,13.71
2022-05-09T04:46:00,rvs,20.85
2022-05-09T04:47:00,rvs,19.83
2022-05-09T04:48:00,rvs,20.07
2022-05-09T04:49:00,rvs,15.93
2022-05-09T04:50:00,rvs,12.00
2022-05-09T04:51:00,rvs,12.29
2022-05-09T04:52:00,rvs,11.91
2022-05-09T04:53:00,rvs,12.51
2022-05-09T04:54:00,rvs,13.30
2022-05-09T04:55:00,rvs,13.93
2022-05-09T04:56:00,rvs,14.91
2022-05-09T04:57:00,rvs,16.12
2022-05-09T04:58:00,rvs,16.62
2022-05-09T04:59:00,rvs,17.54
2022-05-09T05:00:00,rvs,15.25
2022-05-09T05:01:00,rvs,14.20
2022-05-09T05:02:00,rvs,14.65
2022-05-09T05:03:00,rvs,15.33
2022-05-09T05:04:00,rvs,14.39
2022-05-09T05:05:00,rvs,13.64
2022-05-09T05:06:00,rvs,14.55
2022-05-09T05:07:00,rvs,13.77
2022-05-09T05:08:00,rvs,13.56
2022-05-09T05:09:00,rvs,13.90
2022-05-09T05:10:00,rvs,15.12
2022-05-09T05:11:00,rvs,9.03
2022-05-09T05:12:00,rvs,9.20
2022-05-09T05:13:00,rvs,9.41
2022-05-09T05:14:00,rvs,9.49
2022-05-09T05:15:00,rvs,9.87
2022-05-09T05:16:00,rvs,9.44
2022-05-09T05:17:00,rvs,9.28
2022-05-09T05:18:00,rvs,9.31
2022-05-09T05:19:00,rvs,11.61
2022-05-09T05:20:00,rvs,13.27
2022-05-09T05:21:00,rvs,14.19
2022-05-09T05:22:00,rvs,14.99
2022-05-09T05:23:00,rvs,16.13
2022-05-09T05:24:00,rvs,15.41
2022-05-09T05:25:00,rvs,15.35
2022-05-09T05:26:00,rvs,15.72
2022-05-09T05:27:00,rvs,16.00
2022-05-09T05:28:00,rvs,14.60
2022-05-09T05:29:00,rvs,14.12
2022-05-09T05:30:00,rvs,14.19
2022-05-09T05:31:00,rvs,14.69
2022-05-09T05:32:00,rvs,20.19
2022-05-09T05:33:00,rvs,20.16
2022-05-09T05:34:00,rvs,20.16
2022-05-09T05:35:00,rvs,19.38
2022-05-09T05:36:00,rvs,14.99
2022-05-09T05:37:00,rvs,14.12
2022-05-09T05:38:00,rvs,21.84
2022-05-09T05:39:00,rvs,22.51
2022-05-09T05:40:00,rvs,21.31
2022-05-09T05:41:00,rvs,21.98
2022-05-09T05:42:00,rvs,10.00
2022-05-09T05:43:00,rvs,12.02
2022-05-09T05:44:00,rvs,12.12
2022-05-09T05:45:00,rvs,12.80
2022-05-09T05:46:00,rvs,13.35
2022-05-09T05:47:00,rvs,15.10
2022-05-09T05:48:00,rvs,15.51
2022-05-09T05:49:00,rvs,17.96
2022-05-09T05:50:00,rvs,18.84
2022-05-09T05:51:00,rvs,18.76
2022-05-09T05:52:00,rvs,20.71
2022-05-09T05:53:00,rvs,20.02
2022-05-09T05:54:00,rvs,20.21
2022-05-09T05:55:00,rvs,18.44
2022-05-09T05:56:00,rvs,17.73
2022-05-09T05:57:00,rvs,20.13
2022-05-09T05:58:00,rvs,22.64
2022-05-09T05:59:00,rvs,23.45
2022-05-09T06:00:00,rvs,25.51
2022-05-09T06:01:00,rvs,26.72
2022-05-09T06:02:00,rvs,26.52
2022-05-09T06:03:00,rvs,26.14
2022-05-09T06:04:00,rvs,26.70
2022-05-09T06:05:00,rvs,25.62
2022-05-09T06:06:00,rvs,25.11
2022-05-09T06:07:00,rvs,24.68
2022-05-09T06:08:00,rvs,25.44
2022-05-09T06:09:00,rvs,14.96
2022-05-09T06:10:00,rvs,14.66
2022-05-09T06:11:00,rvs,14.90
2022-05-09T06:12:00,rvs,14.80
2022-05-09T06:13:00,rvs,14.92
2022-05-09T06:14:00,rvs,13.65
2022-05-09T06:15:00,rvs,14.03
2022-05-09T06:16:00,rvs,14.54
2022-05-09T06:17:00,rvs,13.80
2022-05-09T06:18:00,rvs,13.49
2022-05-09T06:19:00,rvs,7.87
2022-05-09T06:20:00,rvs,7.88
2022-05-09T06:21:00,rvs,7.94
2022-05-09T06:22:00,rvs,8.21
2022-05-09T06:23:00,rvs,8.46
2022-05-09T06:24:00,rvs,8.08
2022-05-09T06:25:00,rvs,8.08
2022-05-09T06:26:00,rvs,8.17
2022-05-09T06:27:00,rvs,8.01
2022-05-09T06:28:00,rvs,8.01
2022-05-09T06:29:00,rvs,8.06
2022-05-09T06:30:00,rvs,8.15
2022-05-09T06:31:00,rvs,11.80
2022-05-09T06:32:00,rvs,12.27
2022-05-09T06:33:00,rvs,13.58
2022-05-09T06:34:00,rvs,14.42
2022-05-09T06:35:00,rvs,16.50
2022-05-09T06:36:00,rvs,16.37
2022-05-09T06:37:00,rvs,16.44
2022-05-09T06:38:00,rvs,16.84
2022-05-09T06:39:00,rvs,17.23
2022-05-09T06:40:00,rvs,16.38
2022-05-09T06:41:00,rvs,18.20
2022-05-09T06:42:00,rvs,18.77
2022-05-09T06:43:00,rvs,13.95
2022-05-09T06:44:00,rvs,10.53
2022-05-09T06:45:00,rvs,8.76
2022-05-09T06:46:00,rvs,8.67
2022-05-09T06:47:00,rvs,8.56
2022-05-09T06:48:00,rvs,8.72
2022-05-09T06:49:00,rvs,9.01
2022-05-09T06:50:00,rvs,9.08
2022-05-09T06:51:00,rvs,9.42
2022-05-09T06:52:00,rvs,9.34
2022-05-09T06:53:00,rvs,8.92
2022-05-09T06:54:00,rvs,8.82
2022-05-09T06:55:00,rvs,8.82
2022-05-09T06:56:00,rvs,13.22
2022-05-09T06:57:00,rvs,13.59
2022-05-09T06:58:00,rvs,17.59
2022-05-09T06:59:00,rvs,13.99
2022-05-09T07:00:00,rvs,15.30
2022-05-09T07:01:00,rvs,17.33
2022-05-09T07:02:00,rvs,15.40
2022-05-09T07:03:00,rvs,15.87
2022-05-09T07:04:00,rvs,15.99
2022-05-09T07:05:00,rvs,15.95
2022-05-09T07:06:00,rvs,16.52
2022-05-09T07:07:00,rvs,16.25
2022-05-09T07:08:00,rvs,15.52
2022-05-09T07:09:00,rvs,15.25
2022-05-09T07:10:00,rvs,32.50
2022-05-09T07:11:00,rvs,35.58
2022-05-09T07:12:00,rvs,36.59
2022-05-09T07:13:00,rvs,38.16
2022-05-09T07:14:00,rvs,16.23
2022-05-09T07:15:00,rvs,13.10
2022-05-09T07:16:00,rvs,13.81
2022-05-09T07:17:00,rvs,14.69
2022-05-09T07:18:00,rvs,15.80
2022-05-09T07:19:00,rvs,15.47
2022-05-09T07:20:00,rvs,18.02
2022-05-09T07:21:00,rvs,32.46
2022-05-09T07:22:00,rvs,33.00
2022-05-09T07:23:00,rvs,28.62
2022-05-09T07:24:00,rvs,31.32
2022-05-09T07:25:00,rvs,20.46
2022-05-09T07:26:00,rvs,21.13
2022-05-09T07:27:00,rvs,21.70
2022-05-09T07:28:00,rvs,21.54
2022-05-09T07:29:00,rvs,20.49
2022-05-09T07:30:00,rvs,20.49
2022-05-09T07:31:00,rvs,21.45
2022-05-09T07:32:00,rvs,19.40
2022-05-09T07:33:00,rvs,19.30
2022-05-09T07:34:00,rvs,19.65
2022-05-09T07:35:00,rvs,17.93
2022-05-09T07:36:00,rvs,16.30
2022-05-09T07:37:00,rvs,14.92
2022-05-09T07:38:00,rvs,15.09
2022-05-09T07:39:00,rvs,14.80
2022-05-09T07:40:00,rvs,15.28
2022-05-09T07:41:00,rvs,15.49
2022-05-09T07:42:00,rvs,9.85
2022-05-09T07:43:00,rvs,27.44
2022-05-09T07:44:00,rvs,9.69
2022-05-09T07:45:00,rvs,9.59
2022-05-09T07:46:00,rvs,9.69
2022-05-09T07:47:00,rvs,9.77
2022-05-09T07:48:00,rvs,9.57
2022-05-09T07:49:00,rvs,9.90
2022-05-09T07:50:00,rvs,9.51
2022-05-09T07:51:00,rvs,9.57
2022-05-09T07:52:00,rvs,9.43
2022-05-09T07:53:00,rvs,9.65
2022-05-09T07:54:00,rvs,10.00
2022-05-09T07:55:00,rvs,9.77
2022-05-09T07:56:00,rvs,9.58
2022-05-09T07:57:00,rvs,10.07
2022-05-09T07:58:00,rvs,9.98
2022-05-09T07:59:00,rvs,9.89
2022-05-09T08:00:00,rvs,12.16
2022-05-09T08:01:00,rvs,12.01
2022-05-09T08:02:00,rvs,11.58
2022-05-09T08:03:00,rvs,11.32
2022-05-09T08:04:00,rvs,11.60
2022-05-09T08:05:00,rvs,11.08
2022-05-09T08:06:00,rvs,11.54
2022-05-09T08:07:00,rvs,11.67
2022-05-09T08:08:00,rvs,12.20
2022-05-09T08:09:00,rvs,11.08
2022-05-09T08:10:00,rvs,10.71
2022-05-09T08:11:00,rvs,10.64
2022-05-09T08:12:00,rvs,10.58
2022-05-09T08:13:00,rvs,10.72
2022-05-09T08:14:00,rvs,10.75
2022-05-09T08:15:00,rvs,10.63
2022-05-09T08:16:00,rvs,14.87
2022-05-09T08:17:00,rvs,14.88
2022-05-09T08:18:00,rvs,15.09
2022-05-09T08:19:00,rvs,14.88
2022-05-09T08:20:00,rvs,15.66
2022-05-09T08:21:00,rvs,15.08
2022-05-09T08:22:00,rvs,19.82
2022-05-09T08:23:00,rvs,19.91
2022-05-09T08:24:00,rvs,20.36
2022-05-09T08:25:00,rvs,15.54
2022-05-09T08:26:00,rvs,15.68
2022-05-09T08:27:00,rvs,15.48
2022-05-09T08:28:00,rvs,15.15
2022-05-09T08:29:00,rvs,19.64
2022-05-09T08:30:00,rvs,19.64
2022-05-09T08:31:00,rvs,19.69
2022-05-09T08:32:00,rvs,20.20
2022-05-09T08:33:00,rvs,20.40
2022-05-09T08:34:00,rvs,19.92
2022-05-09T08:35:00,rvs,20.02
2022-05-09T08:36:00,rvs,20.02
2022-05-09T08:37:00,rvs,19.67
2022-05-09T08:38:00,rvs,19.61
2022-05-09T08:39:00,rvs,19.69
2022-05-09T08:40:00,rvs,19.86
2022-05-09T08:41:00,rvs,19.95
2022-05-09T08:42:00,rvs,19.63
2022-05-09T08:43:00,rvs,19.82
2022-05-09T08:44:00,rvs,20.13
2022-05-09T08:45:00,rvs,19.66
2022-05-09T08:46:00,rvs,19.43
2022-05-09T08:47:00,rvs,19.62
2022-05-09T08:48:00,rvs,20.70
2022-05-09T08:49:00,rvs,16.86
2022-05-09T08:50:00,rvs,15.28
2022-05-09T08:51:00,rvs,19.66
2022-05-09T08:52:00,rvs,19.22
2022-05-09T08:53:00,rvs,15.54
2022-05-09T08:54:00,rvs,19.98
2022-05-09T08:55:00,rvs,23.96
2022-05-09T08:56:00,rvs,24.23
2022-05-09T08:57:00,rvs,20.99
2022-05-09T08:58:00,rvs,20.86
2022-05-09T08:59:00,rvs,23.92
2022-05-09T09:00:00,rvs,23.89
2022-05-09T09:01:00,rvs,20.66
2022-05-09T09:02:00,rvs,20.32
2022-05-09T09:03:00,rvs,24.47
2022-05-09T09:04:00,rvs,24.58
2022-05-09T09:05:00,rvs,20.60
2022-05-09T09:06:00,rvs,20.44
2022-05-09T09:07:00,rvs,24.09
2022-05-09T09:08:00,rvs,20.01
2022-05-09T09:09:00,rvs,12.40
2022-05-09T09:10:00,rvs,19.63
2022-05-09T09:11:00,rvs,19.68
2022-05-09T09:12:00,rvs,15.43
2022-05-09T09:13:00,rvs,19.47
2022-05-09T09:14:00,rvs,19.17
2022-05-09T09:15:00,rvs,17.44
2022-05-09T09:16:00,rvs,15.53
2022-05-09T09:17:00,rvs,25.02
2022-05-09T09:18:00,rvs,24.08
2022-05-09T09:19:00,rvs,11.94
2022-05-09T09:20:00,rvs,32.84
2022-05-09T09:21:00,rvs,28.69
2022-05-09T09:22:00,rvs,32.38
2022-05-09T09:23:00,rvs,15.94
2022-05-09T09:24:00,rvs,15.83
2022-05-09T09:25:00,rvs,11.89
2022-05-09T09:26:00,rvs,15.96
2022-05-09T09:27:00,rvs,11.47
2022-05-09T09:28:00,rvs,16.27
2022-05-09T09:29:00,rvs,11.65
2022-05-09T09:30:00,rvs,14.95
2022-05-09T09:31:00,rvs,10.17
2022-05-09T09:32:00,rvs,13.52
2022-05-09T09:33:00,rvs,14.90
2022-05-09T09:34:00,rvs,16.01
2022-05-09T09:35:00,rvs,17.95
2022-05-09T09:36:00,rvs,17.12
2022-05-09T09:37:00,rvs,16.07
2022-05-09T09:38:00,rvs,33.12
2022-05-09T09:39:00,rvs,16.86
2022-05-09T09:40:00,rvs,17.66
2022-05-09T09:41:00,rvs,15.90
2022-05-09T09:42:00,rvs,16.16
2022-05-09T09:43:00,rvs,16.79
2022-05-09T09:44:00,rvs,17.03
2022-05-09T09:45:00,rvs,15.81
2022-05-09T09:46:00,rvs,16.45
2022-05-09T09:47:00,rvs,17.60
2022-05-09T09:48:00,rvs,17.22
2022-05-09T09:49:00,rvs,16.94
2022-05-09T09:50:00,rvs,17.04
2022-05-09T09:51:00,rvs,16.01
2022-05-09T09:52:00,rvs,16.89
2022-05-09T09:53:00,rvs,17.21
2022-05-09T09:54:00,rvs,15.85
2022-05-09T09:55:00,rvs,21.25
2022-05-09T09:56:00,rvs,21.30
2022-05-09T09:57:00,rvs,25.22
2022-05-09T09:58:00,rvs,25.27
2022-05-09T09:59:00,rvs,24.29
2022-05-09T10:00:00,rvs,20.04
2022-05-09T10:01:00,rvs,20.04
2022-05-09T10:02:00,rvs,20.10
2022-05-09T10:03:00,rvs,19.12
2022-05-09T10:04:00,rvs,19.59
2022-05-09T10:05:00,rvs,20.42
2022-05-09T10:06:00,rvs,20.44
2022-05-09T10:07:00,rvs,20.46
2022-05-09T10:08:00,rvs,20.21
2022-05-09T10:09:00,rvs,20.18
2022-05-09T10:10:00,rvs,20.18
2022-05-09T10:11:00,rvs,20.09
2022-05-09T10:12:00,rvs,24.53
2022-05-09T10:13:00,rvs,24.19
2022-05-09T10:14:00,rvs,23.98
2022-05-09T10:15:00,rvs,19.03
2022-05-09T10:16:00,rvs,19.22
2022-05-09T10:17:00,rvs,19.05
2022-05-09T10:18:00,rvs,19.23
2022-05-09T10:19:00,rvs,19.36
2022-05-09T10:20:00,rvs,19.63
2022-05-09T10:21:00,rvs,19.91
2022-05-09T10:22:00,rvs,20.17
2022-05-09T10:23:00,rvs,19.42
2022-05-09T10:24:00,rvs,19.21
2022-05-09T10:25:00,rvs,19.10
2022-05-09T10:26:00,rvs,19.39
2022-05-09T10:27:00,rvs,19.66
2022-05-09T10:28:00,rvs,20.00
2022-05-09T10:29:00,rvs,19.57
2022-05-09T10:30:00,rvs,19.02
2022-05-09T10:31:00,rvs,18.95
2022-05-09T10:32:00,rvs,18.99
2022-05-09T10:33:00,rvs,18.97
2022-05-09T10:34:00,rvs,19.86
2022-05-09T10:35:00,rvs,36.79
2022-05-09T10:36:00,rvs,19.53
2022-05-09T10:37:00,rvs,37.89
2022-05-09T10:38:00,rvs,19.28
2022-05-09T10:39:00,rvs,19.45
2022-05-09T10:40:00,rvs,19.29
2022-05-09T10:41:00,rvs,19.18
2022-05-09T10:42:00,rvs,18.97
2022-05-09T10:43:00,rvs,19.01
2022-05-09T10:44:00,rvs,19.29
2022-05-09T10:45:00,rvs,19.37
2022-05-09T10:46:00,rvs,14.97
2022-05-09T10:47:00,rvs,14.94
2022-05-09T10:48:00,rvs,14.81
2022-05-09T10:49:00,rvs,14.94
2022-05-09T10:50:00,rvs,18.68
2022-05-09T10:51:00,rvs,19.03
2022-05-09T10:52:00,rvs,14.86
2022-05-09T10:53:00,rvs,14.99
2022-05-09T10:54:00,rvs,10.39
2022-05-09T10:55:00,rvs,10.13
2022-05-09T10:56:00,rvs,14.18
2022-05-09T10:57:00,rvs,14.30
2022-05-09T10:58:00,rvs,14.47
2022-05-09T10:59:00,rvs,9.74
2022-05-09T11:00:00,rvs,11.14
2022-05-09T11:01:00,rvs,15.55
2022-05-09T11:02:00,rvs,14.35
2022-05-09T11:03:00,rvs,14.57
2022-05-09T11:04:00,rvs,10.51
2022-05-09T11:05:00,rvs,10.29
2022-05-09T11:06:00,rvs,14.49
2022-05-09T11:07:00,rvs,14.48
2022-05-09T11:08:00,rvs,14.77
2022-05-09T11:09:00,rvs,10.16
2022-05-09T11:10:00,rvs,10.25
2022-05-09T11:11:00,rvs,9.91
2022-05-09T11:12:00,rvs,9.50
2022-05-09T11:13:00,rvs,9.98
2022-05-09T11:14:00,rvs,9.86
2022-05-09T11:15:00,rvs,9.75
2022-05-09T11:16:00,rvs,9.80
2022-05-09T11:17:00,rvs,10.11
2022-05-09T11:18:00,rvs,10.42
2022-05-09T11:19:00,rvs,10.14
2022-05-09T11:20:00,rvs,9.97
2022-05-09T11:21:00,rvs,10.00
2022-05-09T11:22:00,rvs,9.49
2022-05-09T11:23:00,rvs,9.89
2022-05-09T11:24:00,rvs,10.33
2022-05-09T11:25:00,rvs,10.00
2022-05-09T11:26:00,rvs,9.25
2022-05-09T11:27:00,rvs,11.17
2022-05-09T11:28:00,rvs,11.03
2022-05-09T11:29:00,rvs,11.14
2022-05-09T11:30:00,rvs,11.07
2022-05-09T11:31:00,rvs,11.13
2022-05-09T11:32:00,rvs,9.48
2022-05-09T11:33:00,rvs,9.62
2022-05-09T11:34:00,rvs,14.17
2022-05-09T11:35:00,rvs,14.47
2022-05-09T11:36:00,rvs,14.92
2022-05-09T11:37:00,rvs,14.59
2022-05-09T11:38:00,rvs,14.41
2022-05-09T11:39:00,rvs,14.30
2022-05-09T11:40:00,rvs,18.83
2022-05-09T11:41:00,rvs,18.84
2022-05-09T11:42:00,rvs,19.33
2022-05-09T11:43:00,rvs,15.00
2022-05-09T11:44:00,rvs,14.63
2022-05-09T11:45:00,rvs,14.25
2022-05-09T11:46:00,rvs,14.19
2022-05-09T11:47:00,rvs,14.11
2022-05-09T11:48:00,rvs,14.06
2022-05-09T11:49:00,rvs,13.96
2022-05-09T11:50:00,rvs,13.87
2022-05-09T11:51:00,rvs,13.78
2022-05-09T11:52:00,rvs,13.82
2022-05-09T11:53:00,rvs,15.34
2022-05-09T11:54:00,rvs,14.18
2022-05-09T11:55:00,rvs,14.13
2022-05-09T11:56:00,rvs,14.08
2022-05-09T11:57:00,rvs,14.06
2022-05-09T11:58:00,rvs,15.35
2022-05-09T11:59:00,rvs,14.08
2022-05-09T12:00:00,rvs,13.98
2022-05-09T12:01:00,rvs,14.21
2022-05-09T12:02:00,rvs,14.32
2022-05-09T12:03:00,rvs,15.19
2022-05-09T12:04:00,rvs,15.13
2022-05-09T12:05:00,rvs,15.16
2022-05-09T12:06:00,rvs,15.37
2022-05-09T12:07:00,rvs,15.31
2022-05-09T12:08:00,rvs,14.43
2022-05-09T12:09:00,rvs,14.94
2022-05-09T12:10:00,rvs,14.87
2022-05-09T12:11:00,rvs,14.95
2022-05-09T12:12:00,rvs,14.95
2022-05-09T12:13:00,rvs,14.32
2022-05-09T12:14:00,rvs,11.17
2022-05-09T12:15:00,rvs,10.65
2022-05-09T12:16:00,rvs,14.51
2022-05-09T12:17:00,rvs,14.00
2022-05-09T12:18:00,rvs,9.90
2022-05-09T12:19:00,rvs,11.00
2022-05-09T12:20:00,rvs,9.70
2022-05-09T12:21:00,rvs,13.82
2022-05-09T12:22:00,rvs,26.80
2022-05-09T12:23:00,rvs,22.64
2022-05-09T12:24:00,rvs,23.35
2022-05-09T12:25:00,rvs,26.91
2022-05-09T12:26:00,rvs,14.52
2022-05-09T12:27:00,rvs,13.58
2022-05-09T12:28:00,rvs,9.59
2022-05-09T12:29:00,rvs,9.63
2022-05-09T12:30:00,rvs,13.65
2022-05-09T12:31:00,rvs,10.51
2022-05-09T12:32:00,rvs,10.81
2022-05-09T12:33:00,rvs,11.18
2022-05-09T12:34:00,rvs,10.89
2022-05-09T12:35:00,rvs,10.13
2022-05-09T12:36:00,rvs,9.86
2022-05-09T12:37:00,rvs,9.80
2022-05-09T12:38:00,rvs,9.87
2022-05-09T12:39:00,rvs,9.92
2022-05-09T12:40:00,rvs,10.16
2022-05-09T12:41:00,rvs,14.31
2022-05-09T12:42:00,rvs,14.23
2022-05-09T12:43:00,rvs,14.29
2022-05-09T12:44:00,rvs,14.29
2022-05-09T12:45:00,rvs,14.13
2022-05-09T12:46:00,rvs,13.97
2022-05-09T12:47:00,rvs,14.19
2022-05-09T12:48:00,rvs,14.23
2022-05-09T12:49:00,rvs,14.19
2022-05-09T12:50:00,rvs,14.67
2022-05-09T12:51:00,rvs,14.52
2022-05-09T12:52:00,rvs,15.49
2022-05-09T12:53:00,rvs,15.60
2022-05-09T12:54:00,rvs,15.52
2022-05-09T12:55:00,rvs,14.44
2022-05-09T12:56:00,rvs,14.55
2022-05-09T12:57:00,rvs,14.60
2022-05-09T12:58:00,rvs,14.63
2022-05-09T12:59:00,rvs,14.66
2022-05-09T13:00:00,rvs,14.64
2022-05-09T13:01:00,rvs,14.56
2022-05-09T13:02:00,rvs,14.62
2022-05-09T13:03:00,rvs,14.59
2022-05-09T13:04:00,rvs,14.54
2022-05-09T13:05:00,rvs,14.75
2022-05-09T13:06:00,rvs,14.49
2022-05-09T13:07:00,rvs,14.96
2022-05-09T13:08:00,rvs,14.48
2022-05-09T13:09:00,rvs,14.75
2022-05-09T13:10:00,rvs,14.34
2022-05-09T13:11:00,rvs,14.45
2022-05-09T13:12:00,rvs,14.31
2022-05-09T13:13:00,rvs,13.68
2022-05-09T13:14:00,rvs,14.14
2022-05-09T13:15:00,rvs,14.38
2022-05-09T13:16:00,rvs,14.16
2022-05-09T13:17:00,rvs,13.55
2022-05-09T13:18:00,rvs,13.47
2022-05-09T13:19:00,rvs,13.78
2022-05-09T13:20:00,rvs,13.91
2022-05-09T13:21:00,rvs,15.47